AAL1884 KBNA-KMIA

Flight info

Callsign AAL1884
Flight time N/A
Altitude 37000
Route FLAME4 GENDE DCT ACORI FROGZ5
Aircraft B738/M-SDE2E3FGHIRWXY/LB1

Departure

Time 2026-04-30 22:30
Airport Nashville International Airport (KBNA)

Arrival

Time N/A
Airport Miami International Airport (KMIA)
Time Latitude Longitude Altitude Speed Heading
2026-04-30 22:11 36.12889 -86.67132 568 ft 0 kts 86°
2026-04-30 22:19 36.12888 -86.67162 568 ft 4 kts 91°
2026-04-30 22:19 36.12896 -86.67227 571 ft 4 kts 112°
2026-04-30 22:20 36.12909 -86.67253 570 ft 4 kts 152°
2026-04-30 22:20 36.12920 -86.67259 573 ft 2 kts 165°
2026-04-30 22:24 36.12917 -86.67258 568 ft 2 kts 165°
2026-04-30 22:24 36.12883 -86.67246 572 ft 7 kts 161°
2026-04-30 22:24 36.12846 -86.67213 570 ft 7 kts 128°
2026-04-30 22:24 36.12816 -86.67170 568 ft 7 kts 132°
2026-04-30 22:25 36.12786 -86.67128 570 ft 6 kts 131°
2026-04-30 22:25 36.12751 -86.67078 568 ft 10 kts 131°
2026-04-30 22:25 36.12698 -86.67002 568 ft 15 kts 130°
2026-04-30 22:25 36.12615 -86.66895 571 ft 18 kts 157°
2026-04-30 22:26 36.12404 -86.66900 573 ft 16 kts 136°
2026-04-30 22:26 36.12343 -86.66784 570 ft 16 kts 110°
2026-04-30 22:26 36.12310 -86.66653 570 ft 16 kts 107°
2026-04-30 22:27 36.12265 -86.66537 569 ft 15 kts 150°
2026-04-30 22:27 36.12162 -86.66558 569 ft 16 kts 198°
2026-04-30 22:27 36.11952 -86.66642 580 ft 16 kts 198°
2026-04-30 22:28 36.11727 -86.66728 585 ft 17 kts 200°
2026-04-30 22:28 36.11612 -86.66774 586 ft 19 kts 194°
2026-04-30 22:29 36.11297 -86.66820 589 ft 11 kts 108°
2026-04-30 22:29 36.11332 -86.66750 590 ft 11 kts 27°
2026-04-30 22:30 36.14870 -86.65154 2527 ft 193 kts 31°
2026-04-30 22:31 36.18056 -86.61122 4370 ft 232 kts 45°
2026-04-30 22:32 36.21647 -86.56393 6570 ft 265 kts 56°
2026-04-30 22:32 36.21971 -86.51811 6990 ft 287 kts 103°
2026-04-30 22:33 36.19818 -86.44929 7168 ft 294 kts 132°
2026-04-30 22:33 36.16112 -86.43104 8981 ft 292 kts 183°
2026-04-30 22:34 36.09830 -86.43443 10891 ft 328 kts 187°
2026-04-30 22:35 36.05184 -86.43696 12461 ft 337 kts 187°
2026-04-30 22:36 35.95628 -86.44143 15604 ft 351 kts 188°
2026-04-30 22:36 35.93175 -86.44257 16305 ft 354 kts 188°
2026-04-30 22:37 35.86803 -86.47937 18484 ft 341 kts 223°
2026-04-30 22:37 35.84908 -86.49725 19158 ft 343 kts 223°
2026-04-30 22:37 35.81096 -86.53319 20503 ft 347 kts 224°
2026-04-30 22:38 35.77220 -86.56922 21781 ft 352 kts 224°
2026-04-30 22:38 35.73279 -86.60554 23026 ft 356 kts 225°
2026-04-30 22:39 35.71318 -86.62356 23625 ft 358 kts 225°
2026-04-30 22:39 35.65276 -86.67893 25198 ft 360 kts 226°
2026-04-30 22:40 35.59248 -86.73409 26801 ft 360 kts 227°
2026-04-30 22:41 35.52441 -86.77774 28215 ft 407 kts 201°
2026-04-30 22:41 35.46662 -86.78263 29061 ft 421 kts 197°
2026-04-30 22:42 35.34734 -86.78914 30383 ft 432 kts 198°
2026-04-30 22:43 35.28694 -86.79305 30907 ft 437 kts 199°
2026-04-30 22:43 35.22587 -86.79714 31512 ft 441 kts 198°
2026-04-30 22:44 35.16404 -86.80133 31805 ft 450 kts 198°
2026-04-30 22:45 35.03811 -86.80964 33100 ft 452 kts 198°
2026-04-30 22:45 34.97540 -86.81378 33764 ft 451 kts 198°
2026-04-30 22:46 34.91305 -86.81796 34246 ft 452 kts 198°
2026-04-30 22:47 34.78625 -86.82077 35268 ft 484 kts 180°
2026-04-30 22:47 34.72067 -86.79916 35836 ft 490 kts 176°
2026-04-30 22:48 34.65517 -86.77585 36277 ft 490 kts 176°
2026-04-30 22:49 34.55712 -86.74255 37026 ft 487 kts 178°
2026-04-30 22:49 34.45809 -86.71017 37016 ft 491 kts 178°
2026-04-30 22:51 34.26254 -86.64627 37024 ft 485 kts 178°
2026-04-30 22:52 34.16470 -86.61444 36950 ft 486 kts 178°
2026-04-30 22:53 34.03400 -86.57196 36996 ft 487 kts 178°
2026-04-30 22:53 33.93586 -86.54021 37018 ft 493 kts 178°
2026-04-30 22:55 33.76619 -86.48556 36994 ft 512 kts 176°
2026-04-30 22:56 33.62860 -86.44114 36921 ft 514 kts 176°
2026-04-30 22:56 33.52621 -86.40815 36987 ft 503 kts 177°
2026-04-30 22:57 33.45862 -86.38656 36988 ft 502 kts 177°
2026-04-30 22:58 33.32372 -86.34358 36993 ft 501 kts 177°
2026-04-30 22:59 33.22576 -86.31207 36999 ft 474 kts 178°
2026-04-30 22:59 33.13068 -86.28203 37000 ft 472 kts 178°